太空蜂星座-125星 (SPACEBEE-125)

导读

SPACEBEE-125是美国于2022年3月15日发射的低轨通信卫星,隶属于SpaceBEE星座系列,由美国Astra公司承担发射任务。该卫星属于小型物联网卫星,旨在为全球提供低带宽物联网连接服务,支持各类地面设备的远程数据传输与监控,推动全球物联网基础设施建设,是美国低轨卫星互联网布局的组成部分。

基本信息
目录编号:
52021
目录名称:
SPACEBEE-125
国际标识:
2022-026P
轨道中心:
EARTH
卫星名称:
太空蜂星座-125星
卫星全名:
太空蜂星座-125星 (SPACEBEE-125)
卫星状态:
已陨落 最后检测时间 2024-02-21
发射日期:
2022-03-15 UTC
国别 :
美国 (US)
星等 :
--
轨道信息
数据来源 国际轨道数据
星历时间: 2024-02-18T21:09:18+0800
轨道信息已过期876天
半长轴: 6575.196km
偏心率: 0.0007802
轨道倾角: 97.458°
近地点辐角 214.869°
升交点赤经 68.815°
平近点角 145.209°
近地点: 191.931km
远地点: 202.191km
周期: 88.435分钟
每日圈数: 16.283199
详细信息
平衡模式:
三轴稳定
覆盖范围:
全球
运营商:
蜂群科技公司
运营商所在国:
美国
制造商(研发单位):
蜂群科技公司
制造商所在国:
美国
使用方式:
暂无
卫星简介
太空蜜蜂(SpaceBEE)皮卫星建立在0.25U立方体卫星平台上,是私营公司蜂群科技公司(Swarm Technologies)开发的卫星星座的一部分。该星座计划由大约150颗皮卫星组成,提供双向卫星通信和数据中继。该卫星已陨落。